Atlanta/Hartsfield-Jackson International

Airport
ICAO code: 
KATL
IATA Code: 
ATL
Summary
ICAO Region: 
NAM
Territory: 
Location: 
Atlanta, Georgia
Serving: 
Atlanta
Elevation: 
1026 ft
Coordinates: 
Aerial View: 
33° 38' 25.161" N, 84° 25' 37.969" W
Airport LOS: 
Parallel Runway Operation
Metar
Observation
KATL 262352Z 32009KT 10SM FEW250 07/M09 A3025 RMK AO2 SLP249 T00671094 10111 20067 53015
Station
Atlanta, Hartsfield - Jackson Atlanta International Airport
Date/Time
2022-01-26 23:52:00
Wind direction
320°
Wind speed
09 kts
Lowest cloud amount
few clouds
Temperature
6.7°C
Dew point
-9.4°C
Humidity
30%
Weather condition
n/a

Description

International airport serving Atlanta, Georgia.

Climatology

Humid “subtropical” climate (Köppen climate classification Cfa) - characterized by hot, humid summers and cool winters. Significant amounts of precipitation occur in all seasons in most areas. Winter rainfall (and sometimes snowfall) is associated with large storms that the westerlies steer from west to east. Most summer rainfall occurs during thunderstorms and occasional tropical storms (hurricanes).

Runways

Designator Length Width Surface Rops
08L/26R 2743 46 CON Yes/Yes
10/28 2743 46 CON Yes/Yes
09R/27L 2744 46 CON Yes/Yes
08R/26L 3048 46 CON Yes/Yes
09L/27R 3624 46 CON Yes/Yes
Airport map: 
Aerial View: 

SKYbrary Partners:

Safety knowledge contributed by: